Tiempo cada hora Dabeiba

Hoy, 14 Mayo, Viernes

Tiempo Temperatura Precipitaciones Viento Presión Humedad
00:00 +21°C° 0.5 mm 0 mps 686 mmHg 97%
01:00 +21°C° 0.5 mm 0 mps 685 mmHg 97%
02:00 +21°C° 0.1 mm 0 mps 685 mmHg 96%
03:00 +20°C° 0.1 mm 0 mps 685 mmHg 96%
04:00 +20°C° 0.1 mm 0 mps 684 mmHg 96%
05:00 +21°C° 0 mm 0 mps 685 mmHg 95%
06:00 +21°C° 0 mm 0 mps 685 mmHg 95%
07:00 +21°C° 0 mm 0 mps 686 mmHg 94%
08:00 +23°C° 0.3 mm 0 mps 686 mmHg 89%
09:00 +26°C° 0.3 mm 1 mps 686 mmHg 84%
10:00 +28°C° 0.3 mm 1 mps 687 mmHg 78%
11:00 +27°C° 1.4 mm 1 mps 686 mmHg 82%
12:00 +27°C° 1.4 mm 1 mps 686 mmHg 85%
13:00 +27°C° 1.4 mm 1 mps 685 mmHg 88%
14:00 +26°C° 1.8 mm 1 mps 685 mmHg 91%
15:00 +26°C° 1.8 mm 1 mps 685 mmHg 93%
16:00 +23°C° 1.8 mm 0 mps 684 mmHg 95%
17:00 +22°C° 0.8 mm 0 mps 685 mmHg 96%
18:00 +22°C° 0.8 mm 0 mps 685 mmHg 97%
19:00 +21°C° 0.8 mm 0 mps 685 mmHg 98%
20:00 +21°C° 0.1 mm 0 mps 686 mmHg 98%
21:00 +21°C° 0.1 mm 0 mps 686 mmHg 98%
22:00 +21°C° 0.1 mm 0 mps 686 mmHg 97%
23:00 +21°C° 0 mm 0 mps 686 mmHg 97%

Mañana, 15 Mayo, Sábado

Tiempo Temperatura Precipitaciones Viento Presión Humedad
00:00 +21°C° 0 mm 0 mps 686 mmHg 97%
01:00 +21°C° 0 mm 0 mps 686 mmHg 97%
02:00 +20°C° 0.2 mm 0 mps 686 mmHg 97%
03:00 +20°C° 0.2 mm 0 mps 685 mmHg 97%
04:00 +22°C° 0.2 mm 1 mps 685 mmHg 97%
05:00 +20°C° 0.1 mm 0 mps 686 mmHg 96%
06:00 +21°C° 0.1 mm 0 mps 686 mmHg 95%
07:00 +21°C° 0.1 mm 0 mps 686 mmHg 95%
08:00 +23°C° 0.4 mm 0 mps 687 mmHg 90%
09:00 +26°C° 0.4 mm 1 mps 687 mmHg 86%
10:00 +27°C° 0.4 mm 1 mps 687 mmHg 82%
11:00 +27°C° 1.5 mm 1 mps 687 mmHg 83%
12:00 +27°C° 1.5 mm 1 mps 686 mmHg 84%
13:00 +27°C° 1.5 mm 1 mps 686 mmHg 85%
14:00 +27°C° 1.6 mm 1 mps 685 mmHg 87%
15:00 +26°C° 1.6 mm 1 mps 685 mmHg 89%
16:00 +26°C° 1.6 mm 1 mps 684 mmHg 91%
17:00 +23°C° 2.4 mm 0 mps 685 mmHg 93%
18:00 +22°C° 2.4 mm 0 mps 685 mmHg 96%
19:00 +21°C° 2.4 mm 0 mps 686 mmHg 98%
20:00 +21°C° 2.3 mm 0 mps 686 mmHg 98%
21:00 +21°C° 2.3 mm 0 mps 686 mmHg 98%
22:00 +21°C° 2.3 mm 0 mps 686 mmHg 98%
23:00 +21°C° 2.4 mm 0 mps 686 mmHg 98%

Pasado mañana, 16 Mayo, Domingo

Tiempo Temperatura Precipitaciones Viento Presión Humedad
00:00 +21°C° 2.4 mm 0 mps 686 mmHg 98%
01:00 +22°C° 2.4 mm 1 mps 686 mmHg 98%
02:00 +22°C° 1 mm 1 mps 685 mmHg 98%
03:00 +22°C° 1 mm 1 mps 685 mmHg 97%
04:00 +22°C° 1 mm 1 mps 685 mmHg 97%
05:00 +20°C° 0.1 mm 0 mps 686 mmHg 96%
06:00 +21°C° 0.1 mm 0 mps 686 mmHg 96%
07:00 +21°C° 0.1 mm 0 mps 686 mmHg 96%
08:00 +22°C° 0.3 mm 0 mps 687 mmHg 92%
09:00 +25°C° 0.3 mm 1 mps 687 mmHg 88%
10:00 +26°C° 0.3 mm 1 mps 687 mmHg 84%
11:00 +26°C° 0.6 mm 1 mps 687 mmHg 84%
12:00 +26°C° 0.6 mm 1 mps 687 mmHg 85%
13:00 +26°C° 0.6 mm 1 mps 686 mmHg 85%
14:00 +26°C° 0.7 mm 1 mps 686 mmHg 87%
15:00 +25°C° 0.7 mm 1 mps 686 mmHg 90%
16:00 +25°C° 0.7 mm 1 mps 685 mmHg 92%
17:00 +24°C° 0.5 mm 1 mps 686 mmHg 94%
18:00 +22°C° 0.5 mm 0 mps 686 mmHg 96%
19:00 +21°C° 0.5 mm 0 mps 686 mmHg 98%
20:00 +21°C° 0.1 mm 0 mps 687 mmHg 97%
21:00 +20°C° 0.1 mm 0 mps 687 mmHg 97%
22:00 +20°C° 0.1 mm 0 mps 687 mmHg 97%
23:00 +20°C° 0 mm 0 mps 687 mmHg 97%

17 Mayo, Lunes

Tiempo Temperatura Precipitaciones Viento Presión Humedad
00:00 +20°C° 0 mm 0 mps 687 mmHg 97%
01:00 +20°C° 0 mm 0 mps 686 mmHg 97%
02:00 +20°C° 0.1 mm 0 mps 686 mmHg 97%
03:00 +20°C° 0.1 mm 0 mps 686 mmHg 97%
04:00 +20°C° 0.1 mm 0 mps 686 mmHg 97%
05:00 +20°C° 0 mm 0 mps 686 mmHg 96%
06:00 +20°C° 0 mm 0 mps 686 mmHg 96%
07:00 +21°C° 0 mm 0 mps 687 mmHg 95%
08:00 +24°C° 0.2 mm 1 mps 687 mmHg 89%
09:00 +26°C° 0.2 mm 1 mps 687 mmHg 83%
10:00 +27°C° 0.2 mm 1 mps 688 mmHg 77%
11:00 +27°C° 1 mm 1 mps 687 mmHg 78%
12:00 +27°C° 1 mm 1 mps 687 mmHg 80%
13:00 +27°C° 1 mm 1 mps 686 mmHg 81%
14:00 +26°C° 1.9 mm 1 mps 686 mmHg 85%
15:00 +26°C° 1.9 mm 1 mps 685 mmHg 89%
16:00 +25°C° 1.9 mm 1 mps 685 mmHg 93%
17:00 +22°C° 2.2 mm 0 mps 685 mmHg 95%
18:00 +22°C° 2.2 mm 0 mps 686 mmHg 96%
19:00 +21°C° 2.2 mm 0 mps 686 mmHg 97%
20:00 +21°C° 2.8 mm 0 mps 687 mmHg 98%
21:00 +21°C° 2.8 mm 0 mps 687 mmHg 98%
22:00 +21°C° 2.8 mm 0 mps 687 mmHg 98%
23:00 +20°C° 0.7 mm 0 mps 687 mmHg 98%

18 Mayo, Martes

Tiempo Temperatura Precipitaciones Viento Presión Humedad
00:00 +20°C° 0.7 mm 0 mps 687 mmHg 98%
01:00 +20°C° 0.7 mm 0 mps 686 mmHg 97%
02:00 +20°C° 0.2 mm 0 mps 686 mmHg 97%
03:00 +20°C° 0.2 mm 0 mps 686 mmHg 97%
04:00 +20°C° 0.2 mm 0 mps 686 mmHg 97%
05:00 +20°C° 0.2 mm 0 mps 686 mmHg 96%
06:00 +20°C° 0.2 mm 0 mps 687 mmHg 96%
07:00 +20°C° 0.2 mm 0 mps 687 mmHg 96%
08:00 +21°C° 0.1 mm 0 mps 687 mmHg 93%
09:00 +22°C° 0.1 mm 0 mps 688 mmHg 90%
10:00 +23°C° 0.1 mm 0 mps 688 mmHg 88%
11:00 +23°C° 0.5 mm 0 mps 687 mmHg 85%
12:00 +26°C° 0.5 mm 1 mps 687 mmHg 83%
13:00 +27°C° 0.5 mm 1 mps 687 mmHg 81%
14:00 +26°C° 1.1 mm 1 mps 686 mmHg 84%
15:00 +26°C° 1.1 mm 1 mps 686 mmHg 88%
16:00 +25°C° 1.1 mm 1 mps 685 mmHg 92%
17:00 +24°C° 0.5 mm 1 mps 685 mmHg 94%
18:00 +21°C° 0.5 mm 0 mps 686 mmHg 96%
19:00 +21°C° 0.5 mm 0 mps 686 mmHg 97%
20:00 +21°C° 0.2 mm 0 mps 686 mmHg 97%
21:00 +20°C° 0.2 mm 0 mps 687 mmHg 97%
22:00 +20°C° 0.2 mm 0 mps 687 mmHg 97%
23:00 +20°C° 0.3 mm 0 mps 687 mmHg 97%

19 Mayo, Miércoles

Tiempo Temperatura Precipitaciones Viento Presión Humedad
00:00 +20°C° 0.3 mm 0 mps 686 mmHg 97%
01:00 +20°C° 0.3 mm 0 mps 686 mmHg 97%
02:00 +20°C° 0.8 mm 0 mps 686 mmHg 97%
03:00 +20°C° 0.8 mm 0 mps 686 mmHg 97%
04:00 +20°C° 0.8 mm 0 mps 685 mmHg 97%
05:00 +20°C° 2 mm 0 mps 686 mmHg 97%
06:00 +20°C° 2 mm 0 mps 686 mmHg 97%
07:00 +20°C° 2 mm 0 mps 686 mmHg 96%
08:00 +24°C° 0.4 mm 1 mps 687 mmHg 91%
09:00 +25°C° 0.4 mm 1 mps 687 mmHg 85%
10:00 +27°C° 0.4 mm 1 mps 687 mmHg 80%
11:00 +27°C° 1.5 mm 1 mps 687 mmHg 82%
12:00 +26°C° 1.5 mm 1 mps 687 mmHg 85%
13:00 +26°C° 1.5 mm 1 mps 686 mmHg 88%
14:00 +25°C° 1.5 mm 1 mps 686 mmHg 90%
15:00 +23°C° 1.5 mm 0 mps 685 mmHg 93%
16:00 +22°C° 1.5 mm 0 mps 685 mmHg 95%
17:00 +22°C° 1.2 mm 0 mps 685 mmHg 96%
18:00 +21°C° 1.2 mm 0 mps 685 mmHg 97%
19:00 +23°C° 1.2 mm 1 mps 685 mmHg 97%
20:00 +23°C° 0.2 mm 1 mps 686 mmHg 97%
21:00 +22°C° 0.2 mm 1 mps 686 mmHg 96%
22:00 +22°C° 0.2 mm 1 mps 686 mmHg 96%
23:00 +22°C° 0 mm 1 mps 686 mmHg 95%
Mostrar más

Necesitamos Su Consentimiento

Meteoprog y nuestros Proveedores de Servicios pueden almacenar y acceder a sus datos personales como cookies, identificadores de dispositivo u otras tecnologías similares de su dispositivo y procesar dichos datos para personalizar contenido y anuncios, además de ofrecer funciones de redes sociales y analizar el tráfico.

  • Almacenar y/o acceder a información en su dispositivo

    Se puede almacenar o acceder a cookies, identificadores de dispositivo u otra información de su dispositivo para los fines anteriormente indicados.

  • Anuncios y contenido personalizados, medición de anuncios y contenido, percepciones del público, y desarrollo de productos

    Los anuncios y el contenido pueden personalizarse en base a su perfil. Se pueden añadir más datos para personalizar mejor los anuncios y contenidos. Se puede medir el rendimiento de los anuncios y contenidos. Se puede obtener la percepción sobre el público que ha visto los anuncios y contenidos. Dichos datos pueden usarse para desarrollar o mejorar la experiencia del usuario, sistemas y software.

Al hacer clic en ‘Estoy De Acuerdo’ usted permitirá el uso de las cookies, identificadores de dispositivo, balizas web u otras tecnologías similares indicadas. Su configuración puede cambiarse desde el navegador de su dispositivo.

Para ciertos fines, los intereses legítimos pueden ser considerados por encima del consentimiento. Puede leer más sobre ello en nuestra Política de Privacidad y Cookies.